Location: Unnamed
(51.5169°N, 0.1311°W)
Time: 20:27:40
(UTC+01:00)

Tiros 1 - Pass Details

Date: 11 August 2024
Orbit: 623 x 655 km, 48.4° (Epoch: 16 September)

Event Time Altitude Azimuth Distance (km) Brightness Sun altitude
Rises 11:36:29 0° 279° (W) 2,978 10.3 49.4°
Reaches altitude 10° 11:39:13 10° 265° (W) 2,060 9.7 49.6°
Maximum altitude 11:42:55 23° 213° (SSW) 1,383 9.4 49.9°
Drops below altitude 10° 11:46:35 10° 162° (SSE) 2,039 10.6 50.2°
Sets 11:49:17 0° 148° (SSE) 2,940 11.2 50.4°
